AirNav   ProFlight Series 2 Aviation Headset
 
 633 users online  

83MI St. Joseph Mercy Oakland-Bassett Street Helipad
Pontiac, Michigan, USA

GOING TO PONTIAC?


FAA INFORMATION EFFECTIVE 18 JUNE 2020

Location

FAA Identifier: 83MI
Lat/Long: 42-36-43.6000N 083-16-33.1000W
42-36.726667N 083-16.551667W
42.6121111,-83.2758611
(estimated)
Elevation: 980 ft. / 299 m (estimated)
Variation: 08W (2020)
From city: 2 miles SW of PONTIAC, MI
Time zone: UTC -4 (UTC -5 during Standard Time)
Zip code: 48341

Heliport Operations

Heliport use: Private use. Permission required prior to landing
Activation date: 06/2015
Control tower: no
ARTCC: CLEVELAND CENTER
FSS: LANSING FLIGHT SERVICE STATION
Attendance: CONTINUOUS
Wind indicator: yes
Segmented circle: no

Heliport Communications

DETROIT APPROACH: 132.35
DETROIT DEPARTURE: 132.35
WX AWOS-3 at VLL (6 nm SE): 119.475 (248-288-4649)
WX ASOS at PTK (7 nm NW): 125.025 (248-886-8551)
WX ASOS at DET (17 nm SE): PHONE 313-371-9696

Nearby radio navigation aids

VOR radial/distance  VOR name  Freq  Var
SVMr052/18.6SALEM VORTAC114.3003W
DXOr016/24.3DETROIT VOR/DME113.4006W
FNTr142/29.7FLINT VORTAC116.9006W
CRLr016/34.8CARLETON VOR/DME115.7003W

 
NDB name  Hdg/Dist  Freq  Var  ID
GROSSE ILE357/31.141907WRYS .-. -.-- ...

Heliport Services

Runway Information

Helipad H1

Dimensions: 45 x 45 ft. / 14 x 14 m
Surface: asphalt
Latitude: 42-36.726667N
Longitude: 083-16.551667W
Elevation: 980.0 ft.
Traffic pattern: leftleft

Heliport Ownership and Management from official FAA records

Ownership: Privately-owned
Owner: ST. JOSEPH MERCY OAKLAND HOSPITAL
44405 WOODWARD ST.
PONTIAC, MI 48341
Manager: MATHEW MARK
44405 WOODWARD ST.
PONTIAC, MI 48341
Phone 248-858-6444

Additional Remarks

FOR CD CTC DETROIT APCH AT 800-499-8181.

Instrument Procedures

There are no published instrument procedures at 83MI.

Some nearby airports with instrument procedures:

KVLL - Oakland/Troy Airport (6 nm SE)
KPTK - Oakland County International Airport (7 nm NW)
Y47 - Oakland Southwest Airport (17 nm SW)
KDET - Coleman A Young Municipal Airport (17 nm SE)
D98 - Romeo State Airport (17 nm NE)
1D2 - Canton-Plymouth-Mettetal Airport (18 nm SW)
57D - Ray Community Airport (19 nm NE)
KMTC - Selfridge Air National Guard Base (19 nm E)
 
Loc | Ops | Rwys | IFR | FBO | Links
Com | Nav | Svcs | Stats | Notes
Aerial photo
No photo
 
Airport distance calculator
Flying to St. Joseph Mercy Oakland-Bassett Street Helipad? Find the distance to fly.

From to 83MI

Sunrise and sunset
Times for 11-Jul-2020
 Local
(UTC-4)
 Zulu
(UTC)
Morning civil twilight05:3309:33
Sunrise06:0710:07
Sunset21:1001:10
Evening civil twilight21:4401:44

Current date and time
Zulu (UTC)  11-Jul-2020 04:12:06
Local (UTC-4)  11-Jul-2020 00:12:06
 
METAR
KVLL 
6nm SE 
110355Z AUTO 31007KT 10SM -RA SCT009 BKN042 OVC120 21/21 A2975 RMK AO2 T02080206
KPTK 
7nm NW 
110353Z 31010KT 10SM -RA BKN010 BKN029 OVC044 21/19 A2975 RMK AO2 SLP068 LAST P0010 T02060194
KDET 
17nm SE 
110353Z 33009KT 4SM RA BR FEW008 BKN075 OVC090 22/21 A2972 RMK AO2 LTG DSNT E SLP059 P0020 T02170206
TAF
KPTK 
7nm NW 
102049Z 1021/1118 08006KT P6SM SCT045 BKN100 FM102300 24006KT 5SM SHRA VCTS SCT020 BKN030 OVC050CB FM110200 32010KT 5SM SHRA BKN020 OVC040 FM110900 31009KT P6SM SCT040 FM111600 30014KT P6SM BKN050
KDET 
17nm SE 
102049Z 1021/1118 08006KT P6SM SCT045 BKN100 FM102300 24006KT 5SM SHRA VCTS SCT020 BKN030 OVC050CB FM110300 31011KT P6SM -SHRA BKN025 OVC050 TEMPO 1103/1107 3SM SHRA FM111000 30010KT P6SM SCT050 FM111600 30014KT P6SM SCT050 BKN060
NOTAMs
Click for the latest NOTAMs
NOTAMs are issued by the DoD/FAA and will open in a separate window not controlled by AirNav.

 

 
 

Would you like to see your business listed on this page?

 If your business provides an interesting product or service to pilots, flight crews, aircraft, or users of the St. Joseph Mercy Oakland-Bassett Street Helipad, you should consider listing it here.  To start the listing process, click on the button below
 
Add a business
 

Other Pages about St. Joseph Mercy Oakland-Bassett Street Helipad

Update a link
 
Copyright © AirNav, LLC. All rights reserved. Privacy Policy  Contact